FW6429 Weather Reports


Display with metric or nautical units.
time (UTC)temp
F
wind
direction
speed
MPH
gust
MPH
rain 1hr
in
rain 24hr
in
rain mn
in
humidity
%
barometer
mb
20260504081547 38 260 8.0 20.0 0.00 0.00 0.00 89 977.9
20260504050023 39 163 11.0 31.0 0.00 0.00 0.00 91 975.4
20260504044522 39 190 10.0 27.0 0.00 0.00 0.00 91 975.9
20260504043033 39 194 7.0 29.0 0.00 0.00 0.00 91 977.0
20260504041512 39 190 10.0 28.0 0.00 0.00 0.00 91 977.8
20260504040012 40 196 10.0 24.0 0.00 0.00 0.00 90 978.7
20260504034507 40 166 13.0 27.0 0.00 0.00 0.00 89 979.2
20260504033003 40 218 12.0 22.0 0.00 0.00 0.00 87 980.0
20260504031603 40 183 5.0 19.0 0.00 0.00 0.00 86 980.5
20260504030057 41 212 6.0 23.0 0.00 0.00 0.00 86 981.4
20260504024555 41 224 6.0 19.0 0.00 0.00 0.00 87 982.3
20260504023052 41 226 9.0 18.0 0.00 0.00 0.00 87 982.8
20260504021549 42 184 8.0 15.0 0.00 0.00 0.00 87 983.3
20260504020126 42 194 7.0 20.0 0.00 0.00 0.00 87 983.7
20260504014559 42 218 6.0 14.0 0.00 0.00 0.00 87 984.2
20260504013055 41 184 5.0 13.0 0.00 0.00 0.00 88 984.6
20260504011541 41 165 5.0 13.0 0.00 0.00 0.00 88 984.9
20260504010043 40 181 5.0 18.0 0.00 0.00 0.00 88 985.7
20260504004546 40 173 6.0 25.0 0.00 0.00 0.00 88 986.7
20260504003033 39 150 8.0 19.0 0.00 0.00 0.00 88 987.4
20260504001536 38 119 8.0 18.0 0.00 0.00 0.00 88 988.3
20260504000028 38 121 8.0 21.0 0.00 0.00 0.00 89 988.9
20260503234527 38 119 7.0 18.0 0.00 0.00 0.00 89 989.3
20260503233023 38 92 9.0 18.0 0.00 0.00 0.00 89 990.3
20260503231520 38 171 5.0 13.0 0.00 0.00 0.00 89 991.9
20260503230016 38 84 5.0 18.0 0.00 0.00 0.00 89 992.9
20260503224512 38 131 8.0 15.0 0.00 0.00 0.00 90 993.9
20260503223009 38 132 6.0 16.0 0.00 0.00 0.00 90 994.9
20260503221509 38 156 4.0 10.0 0.00 0.00 0.00 91 995.5
20260503220005 38 109 4.0 12.0 0.00 0.00 0.00 91 996.0
20260503214503 37 171 5.0 13.0 0.00 0.00 0.00 92 996.4
20260503213007 37 142 4.0 14.0 0.00 0.00 0.00 93 996.5
20260503211500 36 115 8.0 15.0 0.00 0.00 0.00 94 996.7
20260503210058 36 127 7.0 18.0 0.00 0.00 0.00 94 997.8
20260503204557 36 73 6.0 19.0 0.00 0.00 0.00 94 998.8
20260503203111 36 158 6.0 15.0 0.00 0.00 0.00 94 999.2
20260503201552 35 93 3.0 13.0 0.00 0.00 0.00 94 1000.5
20260503200050 35 111 6.0 19.0 0.00 0.00 0.00 94 1001.3
20260503194548 35 101 8.0 17.0 0.00 0.00 0.00 94 1001.9
20260503193047 35 131 8.0 15.0 0.00 0.00 0.00 93 1001.6
20260503191547 37 82 5.0 12.0 0.00 0.00 0.00 93 1002.6
20260503190054 38 200 5.0 12.0 0.00 0.00 0.00 92 1004.1
20260503184538 39 64 5.0 10.0 0.00 0.00 0.00 91 1004.3
20260503183036 40 119 4.0 9.0 0.00 0.00 0.00 90 1006.0
20260503181536 40 88 4.0 10.0 0.00 0.00 0.00 89 1005.8
20260503180034 40 80 3.0 9.0 0.00 0.00 0.00 89 1007.0
20260503174527 40 106 2.0 8.0 0.00 0.00 0.00 88 1008.3
20260503173026 40 121 4.0 9.0 0.00 0.00 0.00 87 1008.4
20260503171524 40 106 1.0 8.0 0.00 0.00 0.00 86 1009.2